Regional Weather Roundup
Issued by NWS Goodland, KS

Home | Current Version | Previous Version | Graphics & Text | Print | Product List | Glossary Off
Versions: 1 2 3 4 5 6 7 8 9 10 11 12 13 14 15 16 17 18 19 20 21 22 23 24 25 26 27 28 29 30 31 32 33 34 35 36 37 38 39 40 41 42 43 44 45 46 47 48 49 50

662
ASUS43 KGLD 260608
RWRGLD

GOODLAND FORECAST AREA HOURLY WEATHER ROUNDUP
NATIONAL WEATHER SERVICE GOODLAND KS
1200 AM MDT TUE JUL 26 2016

...OFFICIAL OBSERVATIONS...

CITY           SKY/WX    TMP DP  RH WIND       PRES   REMARKS
GOODLAND KS    CLOUDY    71  64  78 SE13      30.14F
HILL CITY KS   PTCLDY    69  65  86 E7        30.12F
IMPERIAL NEB   PTCLDY    69  63  81 SE8       30.14S
MCCOOK NEB     CLOUDY    72  64  76 SE8       30.12F
AKRON CO       CLOUDY    68  60  75 S14       30.18S
BURLINGTON CO  CLOUDY    70  64  81 S13       30.17F
LIMON CO       NOT AVBL
$$

...UNOFFICIAL OBSERVATIONS...

CITY           SKY/WX    TMP DP  RH WIND       PRES   REMARKS
COLBY KS       CLEAR     72  68  88 SE10      30.15F
LENORA KS        N/A     70  32  24 MISG        N/A
NORTON KS      CLEAR     70  63  78 E6        30.12F
TRIBUNE KS     MOCLDY    70  66  88 SE7       30.16F
YUMA CO          N/A     66  63  91 CALM        N/A
$$




USA.gov is the U.S. government's official web portal to all federal, state and local government web resources and services.